Location: Sternwarte Stuttgart
(48.7670°N, 9.1830°E)
Time: 20:55:20
(UTC+01:00)

Cosmos 1441 Rocket - Pass Details

Date: 24 January 2019
Orbit: 496 x 542 km, 81.1° (Epoch: 19 February)

Event Time Altitude Azimuth Distance (km) Brightness Sun altitude
Rises 05:49:48 0° 192° (SSW) 2,688 6.8 -21.8°
Reaches altitude 10° 05:51:57 10° 193° (SSW) 1,797 5.8 -21.4°
Maximum altitude 05:55:56 83° 282° (WNW) 547 3.1 -20.8°
Drops below altitude 10° 05:59:53 10° 10° (N) 1,792 6.0 -20.1°
Sets 06:02:02 0° 12° (NNE) 2,680 6.9 -19.8°
